Location: Terra Rouge Observatory
(46.0000°N, 62.7500°W)
Time: 14:47:28
(UTC-03:00)

Daily predictions for brighter satellites

Satellite Brightness Start Highest point End
(mag) Time Altitude Azimuth Time Altitude Azimuth Time Altitude Azimuth
USA 234 3.4 20:33:54 10° SE 20:40:29 88° NE 20:47:05 10° NW
Molniya-1 4.2 20:45:39 10° SSE 20:46:55 16° ESE 20:48:25 10° ENE
CZ-4B DEB 3.3 20:44:21 10° SE 20:47:11 37° ENE 20:50:03 10° N
Cosmos 1331 Rocket 4.2 20:44:02 10° SSW 20:49:21 82° WNW 20:54:42 10° NNE
Cosmos 2227 4.3 20:46:38 10° NNW 20:52:26 86° ENE 20:58:09 10° SSE
Resurs 01 Rocket 2.5 20:49:05 10° S 20:53:25 52° W 20:57:48 10° NNW
Cosmos 2360 4.2 20:50:13 10° SSW 20:55:53 67° ESE 21:01:36 10° NNE
Helios 1A 3.0 20:52:09 10° SSE 20:56:23 77° ENE 21:00:39 10° N
BREEZE-M DEB (TANK) 4.0 20:53:06 10° W 20:57:23 89° NNE 21:14:41 10° E
GRACE-1 4.3 20:59:00 10° N 21:01:45 63° W 21:04:27 10° S
CZ-3B DEB 3.4 20:58:54 10° WNW 21:01:59 17° WSW 21:04:07 10° SSW
GRACE-2 4.3 20:59:25 10° N 21:02:09 63° W 21:04:52 10° S
SAR-Lupe-4 3.5 20:59:48 10° SSE 21:03:23 89° ENE 21:07:00 10° NNW
Cosmos 1486 Rocket 4.3 21:01:33 10° NNW 21:06:45 69° WSW 21:11:57 10° S
ERS-1 Rocket 3.6 21:02:11 11° SE 21:06:46 40° ENE 21:11:27 10° N
Cosmos 1408 2.6 21:08:23 10° N 21:12:05 62° E 21:15:37 11° SSE
CENTAUR R/B 3.3 21:07:31 10° WSW 21:13:37 58° NW 21:20:38 10° NE
ERBS 2.6 21:13:29 10° NW 21:16:55 64° SW 21:19:23 18° SE
Cosmos 2026 Rocket 4.0 21:11:39 10° N 21:17:57 78° E 21:24:07 10° SSE
Cosmos 1455 3.3 21:14:52 10° SSW 21:18:33 48° WNW 21:22:14 10° N
SAR-Lupe-1 4.4 21:17:23 10° S 21:20:56 65° WSW 21:24:31 10° NNW
Cosmos 220 Rocket 4.1 21:17:14 10° NNW 21:21:44 87° WSW 21:25:45 13° SSE
Cosmos 1869 3.3 21:17:56 10° S 21:21:53 85° WNW 21:25:51 10° N
Cosmos 1992 Rocket 4.4 21:18:38 10° S 21:23:27 39° ESE 21:28:19 10° NE
SeaSat 1 3.2 21:20:24 16° ESE 21:23:53 40° NE 21:28:30 10° NNW
Cosmos 1697 Rocket 4.2 21:18:51 10° SW 21:24:08 40° NW 21:29:28 10° NNE
MetOp-A 4.5 21:26:59 17° SE 21:30:51 49° ENE 21:35:59 10° N
H-2A R/B 4.1 21:30:06 11° E 21:31:38 13° ENE 21:33:40 10° NNE
Cosmos 397 4.4 21:27:11 10° NNW 21:31:40 82° NE 21:34:12 22° SE
Cosmos 1908 Rocket 4.4 21:27:57 10° N 21:31:55 33° ENE 21:33:53 22° ESE
Cosmos 1503 Rocket 4.2 21:32:37 10° NNW 21:37:54 71° WSW 21:42:25 14° S
Cosmos 1634 Rocket 4.4 21:32:07 10° SSW 21:38:22 69° W 21:44:43 10° N
Cosmos 1867 4.2 21:33:30 10° NNW 21:38:43 43° NE 21:42:00 21° ESE
Cosmos 2263 Rocket 2.2 21:33:22 10° NNW 21:38:57 72° ENE 21:42:39 22° SE
Cosmos 1655 Rocket 4.1 21:32:55 10° N 21:39:22 89° WSW 21:45:45 10° S
Intercosmos 25 Rocket 3.1 21:36:27 10° SSW 21:39:36 78° W 21:43:37 10° N
Cosmos 1354 Rocket 4.3 21:35:56 10° NNW 21:41:11 66° WSW 21:45:44 14° S
Cosmos 1933 3.3 21:38:54 15° S 21:42:06 60° E 21:46:05 10° NNE
Cosmos 2322 Rocket 2.1 21:38:52 10° SSW 21:44:27 75° ESE 21:50:06 10° NNE
H-2A R/B 3.0 21:43:26 22° ESE 21:45:35 30° ENE 21:49:51 10° N
USA 267 4.3 21:41:09 10° NE 21:47:19 46° NNW 21:53:30 10° W
YAOGAN 6 2.8 21:45:47 20° S 21:48:15 72° WSW 21:51:54 10° NNW
Terra 3.5 21:48:00 16° E 21:49:31 19° ENE 21:52:49 10° NNE
Abrixas rocket 2.1 21:47:40 10° WSW 21:50:57 89° NNW 21:52:35 27° ENE
Cosmos 1733 Rocket 3.4 21:49:24 10° NNW 21:53:48 65° W 21:57:19 16° S
Meteor 2-10 Rocket 3.9 21:49:44 16° SSE 21:54:14 55° E 21:59:54 10° NNE
Cosmos 2360 Rocket 2.7 21:52:40 22° SSE 21:55:40 38° ESE 22:00:52 10° NE
Cosmos 1980 Rocket 3.8 21:51:25 10° WSW 21:56:41 37° NW 22:01:59 10° NNE
Helios 1B rocket 4.1 21:53:02 10° N 21:56:47 35° WNW 22:00:32 10° SW
Lacrosse 4 Rocket 2.3 21:56:44 10° NW 22:00:51 44° WSW 22:03:17 22° S
Cosmos 2322 4.3 21:58:53 27° SE 22:00:56 36° ESE 22:06:05 10° NE
SL-08 RB Rocket 4.0 21:59:45 33° SE 22:01:27 50° ENE 22:05:52 10° N
Cosmos 1862 Rocket 3.7 21:57:11 10° SSW 22:01:38 77° W 22:06:09 10° N
Cosmos 968 Rocket 3.5 21:58:58 10° NNW 22:04:08 65° ENE 22:06:21 34° SE
NOAA 11 4.2 22:01:00 24° SSE 22:04:29 89° ENE 22:10:01 10° NNW
Cosmos 1825 3.9 22:01:39 10° NNW 22:05:01 30° W 22:08:22 10° SSW
Cosmos 1862 4.2 22:01:42 10° NNW 22:05:34 46° W 22:08:23 17° SSW
Cosmos 2266 Rocket 4.0 21:59:29 10° N 22:05:42 66° ENE 22:09:09 28° SSE
CZ-4C R/B 4.2 22:03:05 10° NNW 22:08:44 28° NNE 22:14:34 11° E
GENESIS II 4.1 22:06:38 10° SSW 22:10:40 74° ESE 22:14:44 10° NE
SL-16 R/B 2.4 22:05:47 10° SSW 22:11:26 72° WNW 22:17:08 10° NNE
YAOGAN 11 4.2 22:12:38 32° S 22:14:36 75° WSW 22:18:59 10° NNW
Milstar 3 4.3 22:12:35 10° SW 22:16:32 16° SSW 22:17:22 15° S
SPOT 5 2.8 22:15:36 34° SSE 22:17:45 87° WSW 22:22:29 10° NNW
Okean 1-7 3.4 22:18:28 42° E 22:18:39 42° E 22:22:49 10° NNE
Cosmos 2333 Rocket 4.3 22:22:56 11° ENE 22:22:56 11° ENE 22:23:19 10° ENE
Nimbus 7 Rocket 4.4 22:15:19 10° NNE 22:21:13 62° ESE 22:24:12 30° S
Cosmos 1703 Rocket 3.5 22:20:15 47° SSE 22:21:24 68° E 22:25:48 10° NNE
ATLAS 5 CENTAUR R/B 2.3 22:15:39 10° NW 22:21:36 88° SW 22:24:21 37° SE
Cosmos 1782 4.3 22:23:39 24° ENE 22:23:39 24° ENE 22:26:03 10° NNE
Cosmos 2221 Rocket 3.7 22:22:36 50° ESE 22:23:02 53° E 22:27:21 10° NNE
MetOp-B 4.4 22:21:52 26° S 22:24:52 64° WSW 22:30:12 10° NNW
Meteor 1-26 Rocket 4.2 22:24:04 23° S 22:27:44 88° ESE 22:33:34 10° NNE
Cosmos 2278 Rocket 3.8 22:25:52 10° N 22:30:20 23° NE 22:32:28 19° ENE
SPOT 1/Viking Rocket 3.5 22:30:50 43° SSE 22:32:39 90° ENE 22:37:54 10° NNW
ARGOS 3.3 22:30:20 33° S 22:32:45 70° WSW 22:38:08 10° NNW
Atlas Centaur 2 4.2 22:29:56 10° SW 22:34:14 22° S 22:34:14 22° S
MOS 1-B Rocket 4.0 22:35:42 33° S 22:38:34 72° WSW 22:44:14 10° NNW
CARTOSAT-1 4.0 22:38:34 46° ENE 22:38:41 46° ENE 22:42:50 10° N
Cosmos 1633 4.3 22:36:07 10° NNE 22:38:14 22° NE 22:38:14 22° NE
Nadezhda 2 Rocket 4.5 22:34:45 10° N 22:41:13 75° E 22:43:27 43° SSE
Cosmos 1844 Rocket 3.0 22:37:20 10° NNW 22:42:49 54° ENE 22:44:04 45° ESE
Meteor 1-10 Rocket 4.4 22:52:54 53° SE 22:53:42 57° E 22:59:28 10° NNE
Meteor 1-11 Rocket 4.2 22:49:49 10° N 22:55:03 41° ENE 22:55:32 40° E
SeaSat 1 3.6 23:00:11 29° SW 23:01:27 33° WSW 23:05:54 10° NW
Cosmos 1777 Rocket 3.9 22:56:47 10° NNW 23:02:06 82° WSW 23:02:46 68° S
Cosmos 2219 Rocket 3.3 23:03:40 29° ENE 23:03:40 29° ENE 23:07:12 10° NE
H-2A R/B 2.1 23:07:13 73° WNW 23:07:13 73° WNW 23:11:21 10° NNW
S3M 4.2 23:06:54 48° E 23:07:15 48° E 23:13:09 10° NNE
USA 229 DEB 3.5 23:04:47 23° SSW 23:09:16 79° SE 23:16:15 10° NE
USA 229 3.5 23:05:03 25° SSW 23:09:22 79° SE 23:16:21 10° NE
Landsat 7 4.1 23:11:17 56° SW 23:11:42 58° W 23:16:25 10° NNW
Cosmos 2237 4.1 23:13:32 55° SSW 23:14:54 89° WNW 23:20:40 10° NNE
DMSP B5D2-2 4.0 23:11:32 10° NNE 23:16:50 83° WNW 23:17:32 68° SSW
Cosmos 2263 Rocket 4.2 23:18:35 10° WNW 23:22:14 18° W 23:24:23 15° SW
Cosmos 1867 4.5 23:17:18 10° NW 23:22:15 36° WSW 23:22:40 36° SW
COSMOS 2428 2.5 23:23:04 77° S 23:23:29 84° ESE 23:29:14 10° NNE
Okean 2 Rocket 4.1 23:19:44 10° NNW 23:23:58 39° W 23:24:13 39° W
H-2A R/B 2.9 23:24:03 35° WSW 23:24:54 37° W 23:29:31 10° NNW
Iridium 4 Rocket 3.9 23:21:31 10° N 23:24:28 41° NNE 23:24:28 41° NNE
Spot 4 3.9 23:26:16 71° NNE 23:26:16 71° NNE 23:30:39 10° N
Terra 2.1 23:26:53 59° W 23:26:53 59° W 23:31:33 10° NNW
Cosmos 1300 Rocket 4.3 23:29:13 10° N 23:32:27 47° NNE 23:32:27 47° NNE
CZ-4 R/B 4.0 23:29:01 10° NNE 23:33:14 70° NNE 23:33:14 70° NNE
IGS 5A 4.5 23:35:11 42° WNW 23:35:11 42° WNW 23:38:28 10° NNW
Cosmos 1745 Rocket 3.8 23:33:06 10° N 23:39:27 85° E 23:40:02 75° SSE
Cosmos 2360 Rocket 3.5 23:34:25 10° WSW 23:39:40 38° NW 23:44:57 10° NNE
Cosmos 1844 3.7 23:36:12 10° NNW 23:41:50 72° WSW 23:41:50 72° WSW
SL-16 R/B 4.1 23:51:29 17° ENE 23:51:29 17° ENE 23:53:21 10° NE
ASTEX 1 4.2 23:50:53 43° W 23:50:53 43° W 23:55:40 10° NNW
